SPIRALE A

Last updated on Oct. 21, 2020, 5:58 a.m. UTC

1 33751U 09008C   20294.83848240  .00000092  00000-0  66808-3 0  9992
2 33751   2.0588  95.4185 5375749 205.6315 113.2042  4.58760669166959
UTC
Height (km)
Latitude
Longitude
Inclination
Orbital Period
UTC large
Height (km)
Speed (km/s)
/
Latitude / Longitude
Inclination (degrees)
Orbital Period (minutes)
Azimuth
Elevation
Range (km)
Doppler Factor
iOS Compass Heading
iOS Angle

Next 30 passes for location: Hong Kong

Rise time Rise Azimuth (degrees) Set time Set Azimuth (degrees) Duration Max altitude (degrees)

No matching passes for this satellites